�������l�o���
Date,Time,MP-1(��Sv/h),MP-2(��Sv/h),MP-3(��Sv/h),MP-4(��Sv/h),MP-5(��Sv/h),MP-6(��Sv/h),MP-7(��Sv/h),MP-8(��Sv/h),����,����(m/s),���J
2023/07/02,00:00,0.516,0.787,0.483,0.942,0.683,0.320,0.558,0.529,���k��,4.7,��
2023/07/02,00:10,0.515,0.787,0.482,0.941,0.683,0.320,0.559,0.527,�k��,4.2,��
2023/07/02,00:20,0.515,0.786,0.484,0.941,0.685,0.319,0.559,0.528,�k��,6.6,��
2023/07/02,00:30,0.518,0.787,0.483,0.938,0.685,0.320,0.559,0.527,���k��,6.2,��
2023/07/02,00:40,0.513,0.786,0.484,0.942,0.685,0.321,0.558,0.526,�k��,4.7,��
2023/07/02,00:50,0.514,0.787,0.483,0.941,0.684,0.321,0.559,0.527,���k��,3.7,��
2023/07/02,01:00,0.516,0.785,0.484,0.941,0.684,0.319,0.559,0.527,�k��,3.3,��
2023/07/02,01:10,0.517,0.786,0.483,0.942,0.685,0.320,0.560,0.527,��,2.5,��
2023/07/02,01:20,0.517,0.786,0.482,0.941,0.684,0.320,0.559,0.527,��,2.8,��
2023/07/02,01:30,0.516,0.787,0.483,0.941,0.684,0.320,0.559,0.527,���k��,3.0,��
2023/07/02,01:40,0.517,0.788,0.484,0.942,0.685,0.320,0.560,0.527,���k��,4.1,��
2023/07/02,01:50,0.515,0.787,0.484,0.942,0.684,0.321,0.558,0.527,���k��,3.4,��
2023/07/02,02:00,0.516,0.788,0.483,0.940,0.687,0.321,0.560,0.529,���k��,3.3,�L
2023/07/02,02:10,0.517,0.786,0.486,0.942,0.685,0.321,0.559,0.527,���k��,3.0,�L
2023/07/02,02:20,0.517,0.785,0.484,0.941,0.684,0.321,0.561,0.527,���k��,2.0,��
2023/07/02,02:30,0.515,0.788,0.483,0.940,0.684,0.320,0.560,0.528,���k��,0.8,��
2023/07/02,02:40,0.516,0.789,0.482,0.942,0.684,0.320,0.559,0.527,���k��,1.5,��
2023/07/02,02:50,0.515,0.788,0.483,0.941,0.686,0.321,0.560,0.528,���k��,3.4,��
2023/07/02,03:00,0.516,0.788,0.485,0.941,0.684,0.321,0.560,0.527,���k��,3.2,��
2023/07/02,03:10,0.516,0.787,0.483,0.943,0.683,0.320,0.561,0.528,���k��,3.6,��
2023/07/02,03:20,0.514,0.787,0.482,0.943,0.685,0.321,0.560,0.528,�k�k��,1.2,��
2023/07/02,03:30,0.516,0.789,0.484,0.943,0.684,0.320,0.561,0.528,�k�k��,2.0,��
2023/07/02,03:40,0.516,0.787,0.484,0.942,0.685,0.322,0.560,0.527,�k�k��,1.2,��
2023/07/02,03:50,0.517,0.788,0.485,0.942,0.684,0.320,0.560,0.527,�k,2.0,��
2023/07/02,04:00,0.516,0.788,0.483,0.939,0.683,0.320,0.559,0.528,�k�k��,3.0,��
2023/07/02,04:10,0.516,0.788,0.483,0.942,0.684,0.319,0.560,0.528,�k�k��,2.0,��
2023/07/02,04:20,0.515,0.789,0.483,0.942,0.685,0.320,0.562,0.527,�k�k��,2.5,��
2023/07/02,04:30,0.516,0.787,0.484,0.943,0.686,0.318,0.559,0.526,�k,2.5,��
2023/07/02,04:40,0.517,0.788,0.482,0.942,0.684,0.321,0.559,0.529,�k,1.9,��
2023/07/02,04:50,0.516,0.786,0.483,0.942,0.685,0.319,0.561,0.528,�k�k��,2.3,��
2023/07/02,05:00,0.516,0.787,0.483,0.941,0.685,0.321,0.560,0.527,�k�k��,2.0,��
2023/07/02,05:10,0.517,0.788,0.482,0.943,0.685,0.320,0.561,0.526,�k,2.8,��
2023/07/02,05:20,0.516,0.790,0.483,0.942,0.685,0.319,0.561,0.528,�k�k��,2.0,��
2023/07/02,05:30,0.516,0.788,0.484,0.942,0.683,0.322,0.560,0.526,�k,1.7,��
2023/07/02,05:40,0.517,0.787,0.485,0.942,0.686,0.321,0.560,0.529,�k,3.0,��
2023/07/02,05:50,0.516,0.787,0.482,0.941,0.684,0.320,0.561,0.528,�k�k��,2.6,��
2023/07/02,06:00,0.518,0.788,0.482,0.941,0.684,0.319,0.561,0.527,�k,3.1,��
2023/07/02,06:10,0.516,0.787,0.483,0.941,0.683,0.321,0.560,0.527,�k,2.2,��
2023/07/02,06:20,0.514,0.788,0.483,0.945,0.687,0.320,0.560,0.528,�k�k��,2.2,��
2023/07/02,06:30,0.518,0.788,0.483,0.940,0.684,0.321,0.561,0.526,�k,2.8,��
2023/07/02,06:40,0.517,0.788,0.483,0.943,0.686,0.320,0.561,0.528,�k,2.8,��
2023/07/02,06:50,0.515,0.788,0.482,0.942,0.685,0.321,0.560,0.527,�k,3.2,��
2023/07/02,07:00,0.516,0.788,0.483,0.942,0.684,0.320,0.559,0.528,�k,3.0,��
2023/07/02,07:10,0.517,0.786,0.483,0.942,0.684,0.318,0.560,0.528,�k�k��,3.2,��
2023/07/02,07:20,0.516,0.788,0.481,0.941,0.683,0.320,0.562,0.527,�k,3.3,��
2023/07/02,07:30,0.517,0.789,0.482,0.942,0.684,0.320,0.560,0.528,�k,3.4,��
2023/07/02,07:40,0.516,0.786,0.483,0.944,0.685,0.320,0.561,0.527,�k,3.4,��
2023/07/02,07:50,0.514,0.787,0.483,0.941,0.685,0.318,0.558,0.526,�k�k��,3.9,��
2023/07/02,08:00,0.515,0.788,0.483,0.943,0.685,0.319,0.560,0.524,�k�k��,5.0,��
2023/07/02,08:10,0.517,0.787,0.481,0.942,0.685,0.319,0.560,0.524,�k�k��,4.6,��
2023/07/02,08:20,0.515,0.789,0.483,0.941,0.687,0.318,0.560,0.525,�k�k��,4.1,��
2023/07/02,08:30,0.516,0.788,0.483,0.939,0.684,0.319,0.559,0.526,�k,3.2,��
2023/07/02,08:40,0.514,0.789,0.481,0.941,0.684,0.319,0.559,0.525,�k��,2.6,��
2023/07/02,08:50,0.515,0.788,0.481,0.942,0.684,0.319,0.559,0.526,���k��,2.5,��
2023/07/02,09:00,0.517,0.787,0.479,0.943,0.687,0.320,0.560,0.527,�k��,2.6,��
2023/07/02,09:10,0.516,0.788,0.480,0.940,0.685,0.320,0.560,0.525,���k��,2.8,��
2023/07/02,09:20,0.515,0.788,0.481,0.941,0.684,0.320,0.559,0.527,���k��,2.3,��
2023/07/02,09:30,0.516,0.787,0.482,0.941,0.686,0.319,0.559,0.526,���k��,2.8,��
2023/07/02,09:40,0.516,0.786,0.482,0.945,0.687,0.321,0.560,0.527,��,2.9,��
2023/07/02,09:50,0.516,0.787,0.482,0.942,0.685,0.320,0.560,0.526,��,2.6,��
2023/07/02,10:00,0.517,0.790,0.482,0.944,0.686,0.320,0.560,0.526,��,2.6,��
2023/07/02,10:10,0.517,0.787,0.482,0.945,0.685,0.320,0.562,0.526,��,2.6,��
2023/07/02,10:20,0.518,0.789,0.482,0.944,0.686,0.321,0.560,0.527,���k��,2.6,��
2023/07/02,10:30,0.518,0.790,0.482,0.945,0.688,0.321,0.561,0.528,���쓌,3.4,��
2023/07/02,10:40,0.517,0.790,0.484,0.943,0.689,0.321,0.559,0.526,���쓌,3.1,��
2023/07/02,10:50,0.518,0.791,0.482,0.944,0.688,0.321,0.561,0.526,���쓌,2.9,��
2023/07/02,11:00,0.519,0.790,0.483,0.945,0.688,0.320,0.560,0.527,���쓌,2.5,��
2023/07/02,11:10,0.519,0.792,0.484,0.941,0.689,0.321,0.561,0.527,���쓌,3.2,��
2023/07/02,11:20,0.518,0.792,0.483,0.940,0.689,0.322,0.561,0.528,��,2.6,��
2023/07/02,11:30,0.518,0.794,0.483,0.944,0.690,0.321,0.562,0.526,���쓌,3.1,��
2023/07/02,11:40,0.520,0.793,0.485,0.944,0.688,0.322,0.561,0.530,���쓌,3.2,��
2023/07/02,11:50,0.519,0.793,0.482,0.941,0.688,0.321,0.561,0.527,���쓌,3.0,��
2023/07/02,12:00,0.520,0.792,0.484,0.940,0.692,0.321,0.560,0.528,���쓌,2.9,��
2023/07/02,12:10,0.519,0.791,0.486,0.942,0.690,0.322,0.563,0.527,�쓌,3.5,��
2023/07/02,12:20,0.519,0.791,0.483,0.944,0.694,0.320,0.561,0.529,���쓌,2.8,��
2023/07/02,12:30,0.519,0.795,0.484,0.944,0.693,0.320,0.560,0.528,���쓌,2.6,��
2023/07/02,12:40,0.521,0.793,0.482,0.943,0.693,0.322,0.560,0.529,��,2.6,��
2023/07/02,12:50,0.519,0.794,0.484,0.943,0.692,0.321,0.560,0.529,���k��,2.6,��
2023/07/02,13:00,0.521,0.794,0.482,0.947,0.692,0.321,0.562,0.529,���쓌,2.6,��
2023/07/02,13:10,0.521,0.795,0.484,0.944,0.694,0.322,0.561,0.530,�쓌,3.0,��
2023/07/02,13:20,0.521,0.795,0.485,0.944,0.692,0.322,0.562,0.529,�쓌,3.5,��
2023/07/02,13:30,0.521,0.796,0.483,0.946,0.694,0.322,0.562,0.530,�쓌,3.2,��
2023/07/02,13:40,0.522,0.796,0.485,0.944,0.694,0.323,0.562,0.529,���쓌,3.4,��
2023/07/02,13:50,0.519,0.796,0.484,0.945,0.692,0.321,0.562,0.529,���쓌,3.1,��
2023/07/02,14:00,0.521,0.796,0.485,0.943,0.695,0.322,0.563,0.529,���쓌,4.5,��
2023/07/02,14:10,0.521,0.796,0.485,0.946,0.693,0.322,0.563,0.529,���쓌,3.9,��
2023/07/02,14:20,0.522,0.795,0.486,0.947,0.695,0.322,0.563,0.530,�쓌,4.1,��
2023/07/02,14:30,0.523,0.796,0.485,0.945,0.694,0.322,0.564,0.529,�쓌,4.4,��
2023/07/02,14:40,0.522,0.795,0.486,0.947,0.694,0.322,0.564,0.530,��쓌,4.1,��
2023/07/02,14:50,0.522,0.797,0.485,0.947,0.694,0.322,0.564,0.530,��쓌,4.6,��
2023/07/02,15:00,0.521,0.798,0.486,0.947,0.696,0.323,0.563,0.529,�쓌,4.1,��
2023/07/02,15:10,0.522,0.797,0.485,0.947,0.696,0.322,0.566,0.529,�쓌,5.3,��
2023/07/02,15:20,0.523,0.798,0.485,0.946,0.694,0.322,0.564,0.529,��쓌,5.0,��
2023/07/02,15:30,0.521,0.797,0.484,0.948,0.696,0.321,0.564,0.528,��쓌,5.3,��
2023/07/02,15:40,0.520,0.797,0.486,0.948,0.694,0.321,0.563,0.529,��쓌,4.6,��
2023/07/02,15:50,0.520,0.796,0.484,0.949,0.693,0.320,0.564,0.529,��쓌,5.3,��
2023/07/02,16:00,0.523,0.799,0.484,0.947,0.696,0.322,0.563,0.528,�쓌,4.6,��
2023/07/02,16:10,0.522,0.797,0.485,0.949,0.696,0.323,0.563,0.529,��쓌,4.0,��
2023/07/02,16:20,0.521,0.797,0.484,0.947,0.697,0.322,0.563,0.527,�쓌,3.3,��
2023/07/02,16:30,0.520,0.797,0.486,0.946,0.696,0.322,0.563,0.530,�쓌,5.0,��
2023/07/02,16:40,0.521,0.797,0.485,0.949,0.694,0.321,0.562,0.530,��쓌,6.5,��
2023/07/02,16:50,0.522,0.799,0.486,0.946,0.696,0.320,0.562,0.529,��쓌,6.0,��
2023/07/02,17:00,0.522,0.796,0.486,0.949,0.696,0.321,0.562,0.528,��,5.5,��
2023/07/02,17:10,0.522,0.795,0.486,0.948,0.696,0.322,0.563,0.528,��쓌,6.7,��
2023/07/02,17:20,0.521,0.797,0.483,0.951,0.695,0.322,0.559,0.527,��쓌,6.0,��
2023/07/02,17:30,0.524,0.797,0.486,0.949,0.695,0.322,0.562,0.529,��쓌,5.5,��
2023/07/02,17:40,0.522,0.797,0.485,0.950,0.695,0.322,0.561,0.527,��쓌,5.5,��
2023/07/02,17:50,0.521,0.797,0.485,0.948,0.697,0.322,0.561,0.527,��쓌,5.0,��
2023/07/02,18:00,0.521,0.796,0.485,0.951,0.695,0.321,0.560,0.527,��,5.3,��
2023/07/02,18:10,0.521,0.797,0.485,0.951,0.698,0.322,0.560,0.528,��쓌,4.9,��
2023/07/02,18:20,0.521,0.796,0.486,0.947,0.696,0.321,0.561,0.529,��쓌,5.1,��
2023/07/02,18:30,0.522,0.797,0.486,0.949,0.697,0.321,0.562,0.529,��,5.3,��
2023/07/02,18:40,0.521,0.797,0.486,0.950,0.696,0.322,0.562,0.528,��쓌,5.7,��
2023/07/02,18:50,0.521,0.796,0.486,0.950,0.696,0.323,0.560,0.530,��,6.2,��
2023/07/02,19:00,0.519,0.799,0.487,0.950,0.695,0.321,0.561,0.529,��쓌,6.9,��
2023/07/02,19:10,0.520,0.798,0.486,0.949,0.697,0.323,0.562,0.529,��,7.3,��
2023/07/02,19:20,0.520,0.797,0.486,0.949,0.696,0.322,0.561,0.528,��,6.6,��
2023/07/02,19:30,0.521,0.797,0.484,0.952,0.697,0.321,0.561,0.529,��,6.4,��
2023/07/02,19:40,0.521,0.797,0.485,0.950,0.696,0.322,0.560,0.527,��,7.6,��
2023/07/02,19:50,0.520,0.799,0.486,0.952,0.697,0.322,0.560,0.528,��,7.3,��
2023/07/02,20:00,0.523,0.798,0.485,0.951,0.696,0.322,0.561,0.531,��,6.8,��
2023/07/02,20:10,0.522,0.798,0.487,0.952,0.697,0.323,0.563,0.528,��,6.6,��
2023/07/02,20:20,0.522,0.797,0.487,0.951,0.697,0.322,0.561,0.528,��,6.7,��
2023/07/02,20:30,0.523,0.800,0.485,0.953,0.696,0.322,0.562,0.530,��,6.7,��
2023/07/02,20:40,0.522,0.800,0.486,0.953,0.698,0.323,0.560,0.530,��,6.7,��
2023/07/02,20:50,0.524,0.801,0.487,0.950,0.697,0.323,0.562,0.529,��,5.5,��
2023/07/02,21:00,0.524,0.797,0.487,0.953,0.698,0.322,0.560,0.530,��,5.5,��
2023/07/02,21:10,0.522,0.799,0.487,0.951,0.696,0.321,0.562,0.528,��쓌,5.9,��
2023/07/02,21:20,0.521,0.800,0.485,0.953,0.698,0.322,0.562,0.529,��,5.9,��
2023/07/02,21:30,0.524,0.802,0.488,0.951,0.697,0.322,0.561,0.529,��,4.9,��
2023/07/02,21:40,0.523,0.798,0.487,0.950,0.699,0.322,0.563,0.531,��쓌,5.8,��
2023/07/02,21:50,0.524,0.798,0.488,0.953,0.697,0.322,0.561,0.529,��쓌,5.7,��
2023/07/02,22:00,0.521,0.800,0.489,0.953,0.699,0.323,0.562,0.531,��쓌,6.9,��
2023/07/02,22:10,0.523,0.798,0.488,0.951,0.697,0.322,0.563,0.530,��쓌,6.3,��
2023/07/02,22:20,0.522,0.800,0.488,0.952,0.697,0.323,0.561,0.529,��,5.6,��
2023/07/02,22:30,0.522,0.798,0.487,0.951,0.697,0.323,0.563,0.529,��,4.0,��
2023/07/02,22:40,0.523,0.798,0.489,0.953,0.697,0.322,0.562,0.531,��쐼,3.6,��
2023/07/02,22:50,0.523,0.799,0.488,0.953,0.698,0.323,0.562,0.530,��쐼,2.6,��
2023/07/02,23:00,0.524,0.800,0.487,0.952,0.699,0.323,0.562,0.531,��,2.5,��
2023/07/02,23:10,0.524,0.801,0.488,0.952,0.699,0.322,0.563,0.529,��,2.6,��
2023/07/02,23:20,0.523,0.800,0.488,0.953,0.700,0.324,0.562,0.531,��,2.6,��
2023/07/02,23:30,0.525,0.801,0.489,0.954,0.697,0.323,0.562,0.531,��,4.3,��
2023/07/02,23:40,0.523,0.801,0.490,0.953,0.699,0.325,0.563,0.530,��,4.7,��
2023/07/02,23:50,0.524,0.801,0.487,0.952,0.699,0.324,0.563,0.531,��,3.8,��
